Simultaneous Nadir Overpasses (SNOs) Predictions

Prediction of SNOs between GOES-16 and NPP Satellite Orbit:

Table of predicted SNOs for the next 14.0 days since TLE Epoch: 10/15/2022
Index Date Time (GOES-16) GOES-16 Lat,Lon NPP Lat,Lon Distance(km) Time Diff (sec)
1 10/15/2022 06:14:40 0.06, -75.19 -0.68, -72.02 361.42 80
2 10/16/2022 18:33:56 -0.05, -75.20 -0.55, -77.31 241.41 80
3 10/17/2022 18:17:51 -0.05, -75.21 0.48, -72.79 275.67 80
4 10/19/2022 06:36:58 0.04, -75.20 0.70, -78.05 324.95 80
5 10/20/2022 06:18:14 0.04, -75.21 -0.33, -73.52 192.44 80
6 10/21/2022 18:40:10 -0.03, -75.23 -0.83, -78.83 409.24 80
7 10/22/2022 18:24:05 -0.03, -75.25 0.15, -74.29 108.78 80
8 10/24/2022 06:45:53 0.03, -75.26 0.97, -79.56 490.26 80
9 10/25/2022 06:24:28 0.03, -75.27 -0.02, -75.02 27.88 80
10 10/27/2022 18:27:38 -0.03, -75.31 -0.14, -75.79 54.91 80
11 10/28/2022 18:11:34 -0.03, -75.32 0.90, -71.27 463.32 80
